Content
SEND FEEDBACK

Daily
Averages
Monthly
Summary
United States of America

MANGILAO, GUAM


Home > North America > United States > Guam
Elevation: 60 feet     Latitude: 13 27N     Longitude: 144 49E

WEATHER
 
SELECT A DAY
Number of Records: 342,273;   Date Range: 1/1/95 - 8/30/14
 
SHARE

PRINT THIS DATA

[ ← Previous Day ]
WEATHER ALMANAC - JANUARY 11, 2014
[ Next Day → ]
[ °C ]   °F
Weather ElementAverageHighLow
Temperature77.7 °F83.5 °F (11:58 am)75.2 °F (8:58 pm)
Dewpoint68.3 °F77 °F (3:44 pm) (7:00 pm)
Humidity90.3 %100 % (3:54 pm)72 % (11:58 am)
Barometer29.89 in29.95 in (8:23 am)29.82 in (4:55 pm)
Wind Speed13.9 mph21.9 mph (3:44 pm)
Wind Gust27.6 mph (1:58 pm)
Weather ElementAverage
Visibility9.5 mi
Wind DirectionENE (56.1 °)

Weather ElementTotal
Precipitation0.09 in
Cooling Degree Days14.4 (Base 65)
Growing Degree Days29.4 (Base 50)
Averaged from 82 records on January 11, 2014
WEATHER CONDITIONS BREAKOUT
WIND DIRECTION BREAKOUT
WEATHER BY HOUR - JANUARY 11, 2014
[ °C ]   °F
Local TimeTemperatureDewpointHumidityBarometerVisibilityWind DirectionWind SpeedGust SpeedPrecipitationEventsConditions
12:28 AM78.8 °F75.2 °F89 %29.93 in10.0 miNE (50°)15.0 mphScattered Clouds
12:55 AM77.5 °F74.8 °F91 %29.88 in10.0 miNE (50°)12.7 mphPartly Cloudy
1:18 AM77.0 °F75.2 °F94 %29.87 in10.0 miNE (50°)15.0 mphMostly Cloudy
1:25 AM77.0 °F73.4 °F89 %29.87 in10.0 miNE (50°)16.1 mphMostly Cloudy
1:55 AM77.7 °F73.8 °F88 %29.86 in10.0 miNE (50°)17.3 mph23.0 mphMostly Cloudy
1:58 AM77.0 °F73.4 °F89 %29.86 in10.0 miNE (50°)17.3 mph23.0 mphScattered Clouds
1:59 AM77.0 °F73.4 °F89 %29.86 in10.0 miNE (50°)17.3 mph23.0 mphMostly Cloudy
2:04 AM77.0 °F73.4 °F89 %29.86 in10.0 miNE (50°)18.4 mph23.0 mphScattered Clouds
2:05 AM77.0 °F73.4 °F89 %29.86 in10.0 miNE (50°)17.3 mphMostly Cloudy
2:15 AM78.8 °F73.4 °F83 %29.86 in10.0 miNE (50°)16.1 mphMostly Cloudy
2:28 AM77.0 °F73.4 °F89 %29.85 in10.0 miNE (50°)15.0 mphMostly Cloudy
2:31 AM77.0 °F73.4 °F89 %29.85 in10.0 miENE (60°)17.3 mph24.2 mphMostly Cloudy
2:55 AM77.9 °F71.8 °F81 %29.84 in10.0 miNE (50°)18.4 mphPartly Cloudy
3:09 AM77.0 °F73.4 °F89 %29.84 in10.0 miNE (50°)16.1 mph23.0 mphMostly Cloudy
3:11 AM77.0 °F73.4 °F89 %29.84 in10.0 miNE (50°)16.1 mph23.0 mphScattered Clouds
3:13 AM77.0 °F73.4 °F89 %29.83 in10.0 miNE (50°)16.1 mph23.0 mphMostly Cloudy
3:26 AM77.0 °F73.4 °F89 %29.88 in10.0 miNE (50°)16.1 mph23.0 mphScattered Clouds
3:58 AM77.7 °F72.7 °F84 %29.84 in10.0 miNE (50°)16.1 mphPartly Cloudy
4:43 AM77.0 °F73.4 °F89 %29.88 in10.0 miENE (60°)18.4 mphMostly Cloudy
4:48 AM77.0 °F73.4 °F89 %29.88 in10.0 miENE (60°)16.1 mphScattered Clouds
4:58 AM77.0 °F73.4 °F89 %29.86 in10.0 miENE (60°)16.1 mph25.3 mphMostly Cloudy
5:03 AM77.0 °F71.6 °F83 %29.88 in10.0 miNE (50°)19.6 mph25.3 mphScattered Clouds
5:58 AM77.7 °F73.4 °F86 %29.87 in10.0 miENE (60°)18.4 mphScattered Clouds
6:03 AM77.0 °F73.4 °F89 %29.90 in10.0 miNE (50°)16.1 mphMostly Cloudy
6:08 AM77.0 °F71.6 °F83 %29.90 in10.0 miENE (60°)16.1 mphScattered Clouds
6:58 AM78.1 °F72.3 °F82 %29.89 in10.0 miNE (50°)19.6 mphPartly Cloudy
7:58 AM79.7 °F73.2 °F80 %29.91 in10.0 miENE (60°)15.0 mph23.0 mphScattered Clouds
8:23 AM80.6 °F73.4 °F79 %29.95 in10.0 miNE (50°)16.1 mph24.2 mphMostly Cloudy
8:33 AM80.6 °F73.4 °F79 %29.95 in10.0 miNE (50°)18.4 mph23.0 mphScattered Clouds
8:58 AM80.8 °F74.1 °F80 %29.94 in10.0 miENE (60°)13.8 mphPartly Cloudy
9:58 AM82.4 °F74.1 °F76 %29.94 in10.0 miENE (60°)18.4 mph26.5 mphPartly Cloudy
10:58 AM83.3 °F74.5 °F75 %29.91 in10.0 miNE (50°)20.7 mph24.2 mphPartly Cloudy
11:58 AM83.5 °F73.4 °F72 %29.89 in10.0 miNE (50°)17.3 mph23.0 mphClear
12:58 PM82.6 °F73.4 °F74 %29.90 in10.0 miNE (50°)16.1 mph21.9 mphPartly Cloudy
1:58 PM82.4 °F75.9 °F81 %29.87 in10.0 miENE (60°)20.7 mph27.6 mphScattered Clouds
2:58 PM82.0 °F73.8 °F76 %29.86 in10.0 miNE (50°)16.1 mph23.0 mphPartly Cloudy
3:44 PM80.6 °F77.0 °F89 %29.85 in7.0 miENE (60°)21.9 mph27.6 mphRainLight Rain
3:49 PM78.8 °F77.0 °F94 %29.86 in4.0 miENE (60°)18.4 mph27.6 mphRainRain
3:54 PM77.0 °F77.0 °F100 %29.86 in4.0 miENE (60°)12.7 mphRainLight Rain
3:56 PM77.0 °F77.0 °F100 %29.86 in7.0 miENE (60°)13.8 mphMostly Cloudy
4:16 PM77.0 °F75.2 °F94 %29.86 in10.0 miENE (70°)10.4 mphMostly Cloudy
4:55 PM78.8 °F75.2 °F89 %29.82 in10.0 miNE (40°)13.8 mphMostly Cloudy
5:55 PM77.0 °F73.4 °F89 %29.83 in10.0 miENE (70°)13.8 mphScattered Clouds
6:55 PM77.0 °F75.2 °F94 %29.85 in10.0 miNE (50°)10.4 mphScattered Clouds
7:36 PM78.8 °F75.2 °F89 %29.90 in10.0 miNE (40°)11.5 mphMostly Cloudy
7:41 PM78.8 °F77.0 °F94 %29.91 in10.0 miNE (40°)12.7 mphMostly Cloudy
7:51 PM78.8 °F75.2 °F89 %29.91 in10.0 miNE (50°)17.3 mphMostly Cloudy
7:55 PM78.8 °F75.2 °F89 %29.87 in10.0 miNE (40°)12.7 mphOvercast
8:01 PM77.0 °F73.4 °F89 %29.91 in10.0 miNE (50°)11.5 mphOvercast
8:11 PM77.0 °F75.2 °F94 %29.91 in10.0 miNE (50°)8.1 mphMostly Cloudy
8:35 PM77.0 °F77.0 °F100 %29.92 in9.0 miNE (50°)15.0 mphRainLight Rain
8:41 PM77.0 °F77.0 °F100 %29.88 in6.0 miNE (40°)10.4 mphRainLight Rain
8:45 PM77.0 °F77.0 °F100 %29.92 in7.0 miNE (40°)8.1 mphRainLight Rain
8:49 PM77.0 °F77.0 °F100 %29.92 in10.0 miNE (40°)6.9 mphOvercast
8:51 PM77.0 °F77.0 °F100 %29.92 in10.0 miNE (40°)8.1 mphLight Drizzle
8:58 PM75.2 °F75.2 °F100 %29.89 in5.0 miNE (50°)8.1 mph0.04 inRainHeavy Rain
9:03 PM75.2 °F0.0 °F29.92 in4.0 miNE (50°)13.8 mphRainHeavy Rain
9:08 PM75.2 °F0.0 °F29.92 in5.0 miNE (50°)8.1 mphRainLight Rain
9:14 PM75.2 °F0.0 °F29.92 in8.0 miENE (60°)6.9 mphMostly Cloudy
9:19 PM75.2 °F0.0 °F29.92 in10.0 miENE (70°)6.9 mphMostly Cloudy
9:24 PM75.2 °F73.4 °F94 %29.92 in10.0 miENE (60°)9.2 mphMostly Cloudy
9:29 PM75.2 °F75.2 °F100 %29.92 in10.0 miENE (60°)8.1 mphMostly Cloudy
9:58 PM75.2 °F0.0 °F29.88 in10.0 miNE (50°)5.8 mph0.05 inScattered Clouds
10:08 PM77.0 °F0.0 °F29.91 in10.0 miENE (60°)8.1 mphMostly Cloudy
10:13 PM77.0 °F75.2 °F94 %29.91 in10.0 miENE (60°)11.5 mphMostly Cloudy
10:18 PM77.0 °F75.2 °F94 %29.91 in10.0 miENE (60°)11.5 mphMostly Cloudy
10:23 PM77.0 °F77.0 °F100 %29.91 in10.0 miENE (60°)8.1 mphScattered Clouds
10:28 PM77.0 °F77.0 °F100 %29.91 in10.0 miENE (60°)8.1 mphMostly Cloudy
10:38 PM77.0 °F77.0 °F100 %29.91 in10.0 miENE (70°)9.2 mphMostly Cloudy
10:43 PM77.0 °F0.0 °F29.91 in10.0 miENE (60°)12.7 mphMostly Cloudy
10:48 PM77.0 °F77.0 °F100 %29.91 in10.0 miENE (70°)12.7 mphScattered Clouds
10:58 PM76.8 °F76.1 °F98 %29.88 in10.0 miENE (60°)8.1 mphScattered Clouds
11:08 PM77.0 °F77.0 °F100 %29.90 in10.0 miENE (70°)10.4 mphMostly Cloudy
11:13 PM77.0 °F77.0 °F100 %29.90 in10.0 miEast (80°)15.0 mphScattered Clouds
11:18 PM77.0 °F75.2 °F94 %29.90 in10.0 miEast (80°)13.8 mphMostly Cloudy
11:23 PM77.0 °F75.2 °F94 %29.90 in10.0 miENE (70°)15.0 mph20.7 mphMostly Cloudy
11:28 PM77.0 °F75.2 °F94 %29.91 in10.0 miENE (70°)13.8 mph20.7 mphMostly Cloudy
11:38 PM77.0 °F75.2 °F94 %29.91 in10.0 miENE (70°)15.0 mphMostly Cloudy
11:43 PM77.0 °F75.2 °F94 %29.91 in10.0 miENE (70°)12.7 mphMostly Cloudy
11:48 PM77.0 °F75.2 °F94 %29.91 in10.0 miENE (70°)11.5 mph20.7 mphMostly Cloudy
11:53 PM77.0 °F75.2 °F94 %29.91 in10.0 miEast (80°)12.7 mph20.7 mphMostly Cloudy
11:58 PM77.5 °F74.7 °F91 %29.88 in10.0 miEast (80°)15.0 mph20.7 mphMostly Cloudy
Hourly data recorded from PGUA, located miles away from Mangilao, Guam







STORIES FROM OUR PARTNERS